THORAD AGENA D DEB

Satellite information

Favourite Embed

Satellite Type and Status

DEBRISIN ORBIT

Key statistics

Satellite THORAD AGENA D DEB at a glance.

Uptime

20291

Days in orbit

Revolutions

≈ 13.9

Per day

Orbit

SSO

Sun Synchronous Orbit

Inclination

100.3

Latest

Satellite identification and parameters

Extended collection of information and parameters for THORAD AGENA D DEB.

Object identification

Identified? True

Debris? True

Object name: THORAD AGENA D DEB

International designator: 1970-025SA

Object number (NORAD): 42520

Object ID (CCSDS): 42520

Country: UNITED STATES OF AMERICA (US)

Current information (Y/N): Y

RCS size: SMALL

Orbital parameters

Period: 103.628 minutes

Inclination: 100.3177 deg

SMA: 7308.237 km

Apoapsis: 1000.276 km

Periapsis: 859.929 km

RAAN: 132.4982 deg

Eccentricy: 0.009602

Argument of periapsis: 355.4034 deg

Mean anomaly: 4.6229 deg

Mean motion: 13.8958076 rev/day

Mean motion (dot): 0.0000184 rev/day2

B* drag term: 0.0014903 1/REarth

Two-line elements (TLE)

Creation date: Oct. 23, 2025, 10:16 p.m.

Reference frame: TEME

Reference center: EARTH

Epoch: Oct. 23, 2025, 9:04 a.m. UTC

TLE line 0: 0 THORAD AGENA D DEB

TLE line 1: 1 42520U 70025SA 25296.37835757 .00001840 00000-0 14903-2 0 9998

TLE line 2: 2 42520 100.3177 132.4982 0096020 355.4034 4.6229 13.89580760594248

Live tracking on map

Real-time ground track for satellite THORAD AGENA D DEB.

In-orbit conjunctions

A list of the most updated potential collisions computed for object THORAD AGENA D DEB.

Target Orbit TCA Probability of collision Miss distance Type
COSMOS 1339 LEO 2025-01-01 23:21:43 0.0001143372 255.0 (m) PAYLOAD
COSMOS 1344 LEO 2024-08-21 14:58:39 0.0004936836 438.0 (m) PAYLOAD

Associated space launch

Meteorological research and development satellite

THORAD AGENA D DEB was lifted into orbit during the mission ‘Thorad SLV-2G Agena D | Nimbus 4’, on board a Thorad SLV-2G Agena D space rocket.

The launch took place on April 8, 1970, 8:17 a.m. from Space Launch Complex 2E.

For more information about the launch, click the button.

Launch to space Thorad SLV-2G Agena D | Nimbus 4
Thorad SLV-2G Agena D | Nimbus 4

Agency: N/A

Status: Launch Successful

Launch date: April 8, 1970, 8:17 a.m. UTC

Rocket: Thorad SLV-2G Agena D

Launch pad: Space Launch Complex 2E

Location: Vandenberg SFB, CA, USA

...

Latest news about this satellite

There are no fresh news available about this satellite. Check back as we update our databases every day.


Newsletter sign-up

Weekly statistics, charts and insights to help you stay on top of the space industry.